Lapse_Rate
3.2 3.5 3.5 3.3 2.8 2.6 2.8 3.0 2.9 2.7 2.7 2.9 3.1 3.1 3.2 3.6 4.1 3.4 3.4 3.5 3.7 3.8 3.9 4.4 4.6 4.8 5.2 5.5 5.9 6.3 6.6 6.8 7.0 7.1 6.2 5.7 6.3 7.0 7.2 7.4 7.6 7.4 6.2
3.3 3.7 3.5 2.9 2.6 2.9 2.9 2.9 3.1 2.9 2.6 2.7 2.7 2.9 3.4 3.5 3.3 3.0 3.4 3.7 3.6 3.6 4.2 4.3 4.5 4.8 5.4 5.6 6.0 6.6 7.0 8.9 8.5 8.4 8.8 7.9 7.9 7.4 7.1 7.5 7.4 6.7 5.6
3.7 3.9 3.4 2.8 2.7 2.7 2.6 3.2 3.3 3.2 2.9 2.7 2.7 3.1 3.3 2.8 3.2 4.0 3.7 3.4 3.2 3.4 3.5 3.6 4.2 4.7 5.3 5.6 6.2 6.6 7.1 8.2 8.9 8.9 8.4 7.9 7.5 8.3 7.5 6.0 7.5 6.5 5.8
4.1 3.7 3.5 2.9 2.7 2.6 2.8 3.3 3.2 3.3 3.1 2.5 2.7 2.8 3.1 3.4 3.9 3.7 3.5 3.1 3.2 3.5 3.6 4.0 4.4 4.6 5.2 5.7 6.2 7.4 7.2 7.4 8.4 8.9 9.2 9.0 8.5 7.7 8.0 8.7 7.3 7.8 8.3
3.0 3.2 3.4 3.3 2.7 2.8 2.6 2.8 2.9 3.2 2.8 2.4 2.4 2.8 2.7 3.0 3.1 3.0 2.6 3.2 3.2 3.4 3.7 4.2 4.6 5.1 5.4 5.7 6.0 6.3 6.6 7.4 8.4 8.6 8.6 8.7 8.7 8.7 8.1 7.7 8.2 7.5 8.7
3.0 3.3 3.2 2.9 3.0 2.4 2.2 2.2 3.0 3.1 2.7 2.2 2.5 2.5 2.7 2.8 2.9 2.8 2.7 3.3 3.7 4.1 4.0 4.4 4.9 5.3 5.6 5.8 6.1 6.5 6.6 7.5 8.2 8.7 8.6 8.5 8.1 8.1 8.1 8.0 8.3 8.5 7.4
2.9 3.2 3.2 2.8 2.0 1.7 1.8 2.2 3.0 3.0 2.3 2.3 2.4 2.4 2.6 2.7 2.6 2.8 3.3 3.4 4.0 4.3 4.5 4.8 5.3 5.7 5.8 5.8 6.2 6.6 6.9 7.5 8.2 8.4 8.6 8.7 8.4 8.6 8.4 8.3 8.4 8.6 8.7
2.7 3.0 2.9 2.0 1.6 1.6 1.9 2.5 2.7 2.6 2.1 2.2 2.1 2.2 2.4 2.6 2.5 2.8 3.3 3.7 4.3 4.5 4.6 4.9 5.4 5.5 5.6 5.8 6.2 6.7 7.0 8.7 8.8 8.8 8.8 8.8 8.9 8.9 8.6 8.2 8.0 8.0 8.2
2.6 2.5 1.8 1.5 1.5 1.6 1.8 2.2 2.2 1.9 1.9 1.9 1.9 2.0 2.4 2.4 2.6 3.1 3.6 4.0 4.3 4.7 5.4 5.1 5.4 5.4 5.8 6.1 6.4 6.7 7.0 7.9 8.5 8.7 8.9 8.9 9.0 8.8 8.5 8.3 8.2 8.0 7.3
2.3 1.8 1.2 0.9 1.1 1.3 1.3 1.4 1.5 1.7 1.5 1.6 1.8 2.6 2.0 2.5 3.0 3.6 3.7 4.0 4.2 4.4 4.6 5.2 5.4 5.6 5.9 6.1 6.5 6.5 6.9 7.8 7.8 8.9 8.8 8.8 8.7 7.9 8.8 8.6 8.5 8.4 7.4
1.8 0.8 0.5 0.7 0.8 1.0 1.3 1.2 1.4 1.4 1.6 1.4 1.6 1.6 2.1 2.8 3.2 3.5 3.6 3.8 4.1 4.5 4.8 5.3 5.5 5.8 6.0 6.2 6.4 6.6 7.2 8.6 8.6 8.7 8.3 8.4 8.9 8.8 9.0 8.8 8.6 8.5 8.3
0.9 0.2 0.1 0.5 1.1 1.1 1.2 1.3 1.1 1.2 1.3 1.3 1.5 2.2 2.6 3.0 3.2 3.4 3.6 4.1 4.4 4.9 5.1 5.5 5.7 6.1 6.2 6.2 6.5 6.6 6.9 7.7 8.1 8.8 8.7 8.2 8.9 8.8 8.8 8.6 8.5 8.2 8.1
0.4 0.5 0.9 1.3 1.4 1.2 1.2 1.1 1.1 0.9 1.2 1.2 1.8 2.3 2.9 3.2 3.3 3.5 4.0 4.5 4.7 5.0 5.6 6.2 6.0 6.2 6.3 6.5 6.8 7.2 7.2 7.2 7.6 7.6 8.2 7.8 8.2 8.2 8.8 8.7 8.2 8.0 8.4
1.3 1.0 1.3 1.4 1.3 1.2 1.0 0.7 0.9 1.1 1.2 1.5 2.1 2.6 3.1 3.3 3.4 3.7 4.1 4.5 5.1 5.4 5.7 6.1 6.3 6.7 6.8 7.1 7.3 7.6 7.7 7.8 7.9 7.9 8.1 7.9 7.9 7.8 8.2 8.5 8.2 8.2 7.9
2.1 2.1 1.4 1.3 1.1 1.0 0.6 0.6 1.2 1.2 1.3 1.6 2.4 3.0 3.2 3.4 3.6 3.8 4.2 4.7 5.2 5.7 6.0 6.3 6.3 6.9 7.2 8.3 9.0 8.1 8.0 8.0 8.1 8.3 8.3 8.2 7.8 8.0 8.3 8.1 7.9 7.6 7.6
2.9 2.6 2.3 1.8 1.3 1.4 0.9 1.5 1.3 1.5 2.1 2.1 2.6 3.2 3.3 3.4 3.6 3.8 4.2 4.5 5.1 5.4 5.6 5.7 6.0 6.3 7.0 8.9 9.1 8.7 8.1 8.2 8.1 8.0 8.3 8.3 8.4 8.1 8.6 8.9 8.7 7.7 6.9
2.5 2.6 2.1 1.7 1.4 1.1 1.0 1.0 1.4 1.8 2.1 2.5 2.7 3.0 3.3 3.3 3.6 3.8 4.1 4.4 4.7 4.6 4.6 5.0 6.0 6.4 6.7 9.2 9.0 8.9 8.2 8.1 8.2 8.3 8.2 8.6 8.2 8.0 7.5 7.6 8.6 8.6 8.3
2.7 2.3 1.5 1.0 0.6 0.2 1.0 1.4 2.0 2.1 2.3 2.3 2.6 3.1 3.2 3.2 3.2 3.6 3.8 4.0 4.2 3.8 4.5 5.2 6.0 6.6 7.4 9.2 9.2 8.7 8.1 8.0 8.3 8.4 8.2 8.1 8.0 8.1 8.2 8.1 8.0 8.0 8.0
1.0 0.6 0.6 0.1 -0.1 0.5 0.9 1.4 1.9 1.8 2.1 2.4 2.6 2.9 3.0 2.7 3.1 3.2 3.4 3.6 3.7 4.0 4.6 5.9 6.7 6.8 6.1 7.3 9.0 8.6 7.9 8.1 8.2 8.1 8.1 7.8 7.6 7.6 8.5 8.0 7.4 7.6 7.7
0.4 -0.0 -0.1 0.0 0.4 0.6 0.7 1.3 1.6 1.5 1.9 2.3 2.5 2.6 2.8 2.9 2.9 3.0 3.2 3.7 4.0 4.7 6.0 5.9 5.9 6.3 6.4 6.0 6.8 8.3 7.8 7.7 8.0 8.2 8.1 7.7 8.2 7.9 8.0 7.8 7.3 7.1 7.0
0.1 -0.0 0.2 0.6 0.9 0.8 0.8 1.5 1.5 1.5 2.1 2.4 2.2 2.4 2.7 2.5 2.8 3.4 3.6 3.9 4.6 5.1 5.0 5.1 4.7 5.3 6.6 6.6 7.8 8.8 7.7 7.8 7.9 7.7 7.7 7.9 8.3 9.0 8.6 7.8 6.8 6.6 7.0
1.0 0.6 0.9 1.4 1.0 0.9 0.9 1.3 1.2 1.7 1.7 1.8 1.9 2.0 2.1 2.6 3.7 3.5 4.1 4.5 4.5 4.1 4.4 4.8 4.7 5.8 6.7 7.4 7.5 8.1 8.5 7.9 7.4 7.8 8.1 7.9 7.7 8.2 8.6 8.8 8.2 8.0 7.1
1.4 1.4 1.4 1.1 0.5 0.4 0.6 1.1 1.3 1.1 1.4 1.4 1.5 1.8 2.1 3.1 4.3 4.9 4.4 3.8 4.2 4.5 5.2 6.2 7.5 6.9 6.5 6.7 7.1 7.4 7.2 7.1 7.0 7.3 7.3 8.2 8.5 8.5 8.3 8.3 8.6 8.7 7.8
2.1 1.7 1.4 1.2 0.8 0.5 1.3 0.9 1.1 1.3 1.2 1.0 1.3 1.8 3.2 4.6 4.7 4.5 4.6 4.2 4.4 4.6 6.7 7.9 7.5 7.4 7.5 7.2 7.2 6.9 6.2 6.2 6.5 6.4 6.5 7.1 7.4 7.6 7.5 7.4 7.6 7.7 7.1
2.5 2.0 1.4 1.3 0.7 0.5 0.9 1.0 2.0 1.1 1.0 1.3 1.7 2.8 3.4 4.8 4.1 3.9 4.2 4.3 4.2 7.3 7.5 7.4 7.4 7.4 7.5 7.4 7.8 7.7 7.3 7.2 7.0 6.7 5.8 5.9 6.1 6.3 6.7 6.3 7.1 7.4 7.1
1.8 1.5 1.3 1.1 0.9 0.9 1.3 1.6 1.7 1.7 1.3 1.7 2.8 2.9 5.1 3.9 4.2 4.0 2.9 3.6 4.8 5.1 5.9 8.0 8.4 7.7 8.2 8.3 8.0 8.1 8.1 7.9 7.7 7.1 7.0 7.0 7.1 7.0 6.8 6.2 7.4 7.4 7.2
Wind_Speed
10 11 11 10 9 8 8 7 6 3 2 2 2 2 3 6 6 10 10 14 13 16 15 12 14 14 9 11 11 11 13 10 11 11 13 12 14 12 8 7 9 7 9
12 13 12 10 11 10 9 7 6 4 3 2 2 0 2 3 5 8 11 12 15 15 14 14 10 12 9 11 11 11 10 9 9 8 11 8 11 5 11 10 9 10 8
18 15 13 13 10 10 10 8 6 5 3 3 2 1 3 4 3 5 7 12 15 15 15 15 14 12 9 9 11 10 11 10 9 9 6 6 5 13 7 14 9 13 6
14 13 14 12 12 11 7 7 7 5 4 4 3 1 2 5 4 7 7 11 13 14 15 15 14 13 11 10 10 9 11 10 10 8 7 10 11 6 10 7 13 11 8
16 15 15 14 11 9 9 7 6 5 4 4 2 1 4 5 6 7 9 9 11 13 14 15 14 12 10 10 12 12 11 9 9 9 8 10 9 11 9 14 11 11 8
13 13 11 9 7 7 8 7 6 4 3 3 1 3 5 8 7 8 8 8 8 8 13 14 14 15 12 12 11 12 13 11 11 9 9 9 7 8 8 11 14 14 12
13 12 12 10 9 10 9 7 6 4 2 2 3 4 6 8 9 10 8 11 9 8 10 13 12 10 15 15 13 12 13 12 11 12 9 8 9 9 9 9 11 11 10
11 13 11 10 11 11 9 7 6 4 2 3 5 5 7 5 6 8 8 8 9 9 14 13 15 17 17 16 14 10 10 13 11 14 12 9 9 9 9 8 9 11 9
11 11 10 10 11 10 8 7 5 3 2 4 5 7 7 8 8 10 9 8 10 10 12 16 13 15 15 14 14 10 12 12 12 13 11 10 9 8 8 7 8 9 10
9 9 9 10 8 9 8 7 5 3 2 4 5 6 8 8 9 9 11 11 12 12 13 14 14 14 14 14 13 11 12 13 11 10 11 10 9 7 7 8 9 9 8
9 9 9 9 10 8 7 5 4 3 4 5 6 8 8 9 10 10 11 12 13 13 13 14 15 14 15 14 13 14 14 14 14 12 11 14 12 9 9 8 8 8 8
9 10 11 11 9 7 6 4 2 2 4 5 7 8 9 10 10 11 12 13 13 13 14 15 15 15 15 14 14 15 14 15 15 15 13 14 9 12 10 7 10 9 9
11 11 10 9 8 6 5 2 2 4 5 6 8 10 10 10 11 12 13 13 14 15 15 15 15 15 15 15 15 15 15 15 15 15 14 14 12 11 9 9 8 8 7
12 10 9 8 6 5 4 2 3 3 6 7 9 9 10 11 12 12 13 14 14 15 15 15 16 15 15 16 15 15 14 14 14 14 14 13 13 13 11 9 9 8 7
11 10 10 7 5 4 3 2 3 6 7 8 9 10 11 12 12 13 14 14 14 14 15 16 15 15 14 12 14 14 14 14 14 14 14 13 15 20 16 9 9 9 7
11 10 9 7 5 4 2 2 5 6 7 8 9 10 11 12 13 14 14 14 14 15 15 15 16 16 11 21 23 19 13 15 15 13 14 12 15 16 20 19 17 12 7
12 11 9 7 5 3 2 4 5 6 7 8 9 10 11 13 13 14 14 15 15 15 15 15 15 16 16 24 23 23 12 12 13 13 12 11 9 12 9 13 16 13 14
12 10 8 7 5 3 2 3 4 5 7 8 9 11 12 13 14 14 14 14 13 14 13 14 15 15 14 24 24 23 13 11 13 13 13 12 12 12 12 10 10 10 9
9 7 6 5 5 3 1 3 4 5 6 8 10 12 13 14 15 15 14 13 12 13 14 14 15 15 15 23 23 18 11 11 12 12 12 12 12 16 18 12 11 10 9
10 9 8 5 5 2 0 2 4 6 7 10 11 12 13 13 14 14 14 13 12 14 12 15 14 18 16 22 22 17 8 11 8 10 10 16 14 18 18 11 10 8 10
11 8 7 6 4 2 1 3 5 6 8 10 11 12 13 13 13 13 12 13 13 14 13 15 13 14 14 14 21 20 9 8 9 9 8 8 16 17 17 17 9 12 10
11 8 6 5 3 3 3 4 5 7 8 10 11 12 12 11 10 13 12 13 12 12 13 13 12 10 12 17 18 20 19 17 9 9 8 9 16 17 18 14 15 15 15
8 6 6 6 3 3 3 4 6 7 9 10 11 11 13 12 12 12 12 11 11 9 11 10 10 11 10 10 19 20 18 17 10 8 12 18 18 18 15 18 19 17 6
8 6 6 5 4 4 4 3 5 7 8 9 10 10 11 12 11 10 9 9 9 10 10 10 11 11 11 10 9 9 9 16 12 14 11 12 14 16 14 11 11 7 5
7 6 6 5 4 3 3 4 6 5 7 8 8 10 10 10 10 10 9 10 10 12 11 10 10 10 10 11 20 19 10 8 9 11 8 7 7 7 7 7 7 6 5
7 6 6 5 3 3 4 5 5 5 6 9 9 9 9 9 9 9 10 19 19 24 24 22 17 11 20 26 26 24 22 21 19 8 7 7 8 8 7 7 7 6 9
Wind_Direction
189 181 183 179 171 174 177 180 172 172 149 74 32 15 340 328 335 340 334 332 328 330 326 322 327 326 319 319 318 317 319 319 325 320 318 309 284 281 287 290 293 332 343
183 187 184 181 185 183 192 185 178 167 135 107 110 121 310 295 309 310 314 318 326 327 327 327 320 317 316 315 315 315 315 311 324 315 311 315 317 8 321 305 325 339 332
189 187 187 192 187 194 193 187 177 171 142 115 88 14 284 280 301 312 314 324 325 324 322 320 317 319 317 313 314 311 308 311 309 305 297 310 305 329 293 318 307 333 330
192 188 188 190 197 202 182 179 173 168 141 113 85 305 296 304 299 303 301 311 313 316 316 314 315 312 310 306 307 306 305 302 300 303 286 282 291 297 310 303 312 302 318
185 184 189 196 197 174 177 173 165 153 133 106 101 313 306 293 301 300 310 316 316 312 307 309 310 309 307 303 302 303 300 294 292 292 294 291 289 282 272 292 312 318 320
186 187 186 171 167 156 161 166 163 141 122 94 57 321 304 312 309 319 321 321 316 306 308 306 307 303 302 302 303 299 294 290 290 286 284 282 284 285 286 294 303 305 312
179 179 172 170 158 166 167 162 155 145 108 54 342 325 317 305 309 319 319 319 314 312 310 309 305 300 301 300 299 297 292 289 286 285 284 282 279 281 282 284 292 293 304
179 182 174 162 167 165 157 141 144 135 79 4 332 326 312 304 309 312 314 306 304 308 308 305 303 302 301 300 299 296 291 290 283 285 277 280 283 278 276 279 292 297 297
174 165 154 162 156 150 144 141 130 105 33 350 331 318 305 311 315 314 308 304 306 305 306 304 301 301 301 300 299 296 293 290 287 282 285 278 280 277 274 279 283 283 293
147 150 151 143 131 132 131 120 104 76 4 331 320 310 311 313 312 310 305 306 303 303 305 303 301 300 299 299 298 296 294 294 288 278 277 290 288 264 281 280 277 280 288
153 142 131 125 127 126 122 110 79 27 342 331 316 316 317 318 315 307 305 301 302 304 302 299 300 299 300 300 300 297 295 291 293 289 283 285 284 280 279 276 275 275 277
141 135 133 134 133 125 117 106 76 358 337 318 320 323 321 317 308 305 302 302 302 300 297 298 297 298 299 299 298 297 295 292 290 288 286 282 284 282 275 272 282 276 277
132 133 134 140 138 130 121 104 30 354 328 330 335 330 320 309 305 303 303 303 301 299 300 300 298 300 301 300 297 294 292 288 284 285 283 280 280 279 277 274 275 277 276
148 146 142 143 139 130 118 60 10 330 343 344 332 315 306 304 302 302 303 302 303 303 302 301 300 300 301 298 298 293 286 280 278 278 276 275 274 273 276 270 269 272 272
160 158 152 148 138 124 81 22 348 357 347 331 315 303 303 304 305 306 307 306 308 305 304 305 304 303 300 298 297 289 283 282 280 278 276 273 268 267 264 260 255 254 261
163 156 146 139 130 109 85 7 3 343 327 310 303 307 310 313 312 310 312 310 311 310 309 308 305 303 299 298 300 298 287 283 279 278 275 272 274 276 276 275 271 257 237
156 152 145 136 130 122 59 11 334 319 308 303 311 315 316 315 312 313 314 314 314 312 310 307 303 301 296 298 299 299 298 297 292 290 291 285 281 287 280 265 269 278 280
146 143 140 136 135 103 60 330 315 312 312 317 317 319 320 315 316 317 315 313 313 312 308 305 300 296 295 301 305 302 296 295 291 285 279 276 274 271 272 270 269 267 266
130 133 139 134 119 108 31 314 318 323 327 327 323 321 320 316 319 317 312 311 312 310 306 303 302 300 297 299 307 310 298 292 286 278 272 269 269 268 266 263 261 258 262
130 138 128 116 115 130 262 330 342 341 337 329 319 317 318 315 314 309 308 310 309 306 308 305 302 299 298 300 306 307 294 290 289 283 269 265 270 258 256 254 255 244 249
130 122 120 127 138 136 29 11 346 344 327 318 315 320 318 314 307 304 307 309 310 311 305 304 302 298 294 298 305 307 298 287 281 273 268 262 265 271 268 256 232 231 233
129 126 129 137 123 75 45 8 353 329 315 316 321 318 314 313 309 309 311 315 313 311 307 305 305 305 302 303 307 305 303 297 294 288 280 267 266 267 265 266 264 257 225
130 134 139 128 100 62 48 2 328 322 324 322 322 319 315 315 313 319 318 317 318 312 309 310 311 315 311 305 305 304 295 285 280 271 270 271 266 261 263 262 254 254 252
144 145 134 111 87 44 22 326 317 330 324 319 321 319 317 320 324 320 318 316 316 313 306 313 312 310 311 312 310 296 280 272 267 261 264 261 259 261 259 256 253 246 234
136 129 114 99 75 32 0 336 336 319 327 327 324 323 314 325 322 320 317 316 308 308 316 315 310 313 315 310 314 317 315 307 284 260 235 232 233 237 242 244 230 216 218
131 115 101 93 57 25 353 333 327 330 330 337 333 319 329 326 321 324 317 316 321 321 323 322 325 319 314 318 323 327 323 318 313 291 266 247 229 226 220 233 222 209 222